GW3763 Weather Reports


time (UTC)temp
F
wind
direction
speed
knots
gust
knots
rain 1hr
in
rain 24hr
in
rain mn
in
humidity
%
barometer
mb
20260505111902 0 215 0.9 1.7 0.00 0.00 0.00 1006.3
20260505111357 0 215 0.0 1.7 0.00 0.00 0.00 1006.4
20260505110853 0 215 0.0 1.7 0.00 0.00 0.00 1006.1
20260505110351 0 214 0.0 2.6 0.00 0.00 0.00 1006.3
20260505101821 0 210 0.0 1.7 0.00 0.00 0.00 1005.7
20260505101316 0 204 2.6 2.6 0.00 0.00 0.00 1005.6
20260505100812 0 211 0.0 0.0 0.00 0.00 0.00 1005.7
20260505100309 0 204 1.7 2.6 0.00 0.00 0.00 1005.5
20260505095805 0 207 1.7 5.2 0.00 0.00 0.00 1005.6
20260505095304 0 203 1.7 1.7 0.00 0.00 0.00 1005.5
20260505094758 0 217 2.6 3.5 0.00 0.00 0.00 1005.4
20260505094255 0 203 1.7 2.6 0.00 0.00 0.00 1005.5
20260505093750 0 202 1.7 2.6 0.00 0.00 0.00 1005.4
20260505093249 0 205 0.9 1.7 0.00 0.00 0.00 1005.3
20260505092745 0 205 0.0 0.0 0.00 0.00 0.00 1005.4
20260505092244 0 205 0.0 0.9 0.00 0.00 0.00 1005.3
20260505091741 0 205 0.9 1.7 0.00 0.00 0.00 1005.3
20260505091239 0 204 1.7 1.7 0.00 0.00 0.00 1005.3
20260505090736 0 213 0.0 0.0 0.00 0.00 0.00 1005.4
20260505090234 0 201 0.0 0.9 0.00 0.00 0.00 1005.3
20260505085731 0 203 0.9 0.9 0.00 0.00 0.00 1005.3
20260505085229 0 203 0.9 0.9 0.00 0.00 0.00 1005.3
20260505084726 0 204 0.0 0.0 0.00 0.00 0.00 1005.2
20260505084226 0 204 0.0 0.0 0.00 0.00 0.00 1005.4
20260505083722 0 203 0.0 1.7 0.00 0.00 0.00 1005.5
20260505083219 0 203 0.0 1.7 0.00 0.00 0.00 1005.4
20260505082715 0 203 0.9 0.9 0.00 0.00 0.00 1005.4
20260505082212 0 197 1.7 2.6 0.00 0.00 0.00 1005.4
20260505081707 0 203 1.7 1.7 0.00 0.00 0.00 1005.5
20260505081206 0 205 0.0 1.7 0.00 0.00 0.00 1005.6
20260505080703 0 205 0.0 1.7 0.00 0.00 0.00 1005.5
20260505080158 0 204 0.9 1.7 0.00 0.00 0.00 1005.4
20260505075654 0 205 0.0 0.0 0.00 0.00 0.00 1005.3
20260505075151 0 205 1.7 1.7 0.00 0.00 0.00 1005.2
20260505074648 0 205 0.0 0.0 0.00 0.00 0.00 1005.3
20260505074145 0 205 0.0 1.7 0.00 0.00 0.00 1005.3
20260505073643 0 205 0.9 1.7 0.00 0.00 0.00 1005.5
20260505073141 0 188 0.0 0.0 0.00 0.00 0.00 1005.1
20260505072636 0 188 0.0 0.0 0.00 0.00 0.00 1005.3
20260505072133 0 201 0.0 1.7 0.00 0.00 0.00 1005.3
20260505071628 0 206 0.0 1.7 0.00 0.00 0.00 1005.5
20260505071126 0 205 1.7 1.7 0.00 0.00 0.00 1005.5
20260505070623 0 207 0.0 0.9 0.00 0.00 0.00 1005.3
20260505070119 0 207 0.9 0.9 0.00 0.00 0.00 1005.4
20260505065616 0 207 1.7 1.7 0.00 0.00 0.00 1005.4
20260505065112 0 211 0.0 0.0 0.00 0.00 0.00 1005.3
20260505064609 0 208 0.0 1.7 0.00 0.00 0.00 1005.5
20260505064108 0 206 0.0 1.7 0.00 0.00 0.00 1005.5
20260505063605 0 206 0.9 0.9 0.00 0.00 0.00 1005.5
20260505063100 0 211 0.0 0.0 0.00 0.00 0.00 1005.5
20260505062557 0 214 0.9 1.7 0.00 0.00 0.00 1005.3
20260505062054 0 208 0.0 2.6 0.00 0.00 0.00 1005.6
20260505061552 0 202 0.9 1.7 0.00 0.00 0.00 1005.6
20260505061050 0 211 0.0 0.0 0.00 0.00 0.00 1005.5
20260505060547 0 210 0.0 0.9 0.00 0.00 0.00 1005.5
20260505060044 0 207 1.7 1.7 0.00 0.00 0.00 1005.5
20260505055539 0 209 0.0 1.7 0.00 0.00 0.00 1005.5
20260505055036 0 207 0.9 1.7 0.00 0.00 0.00 1005.7
20260505054533 0 203 1.7 2.6 0.00 0.00 0.00 1005.7
20260505054031 0 204 0.9 0.9 0.00 0.00 0.00 1005.6
20260505053528 0 204 0.0 0.0 0.00 0.00 0.00 1005.5
20260505053025 0 204 0.0 0.0 0.00 0.00 0.00 1005.8
20260505052522 0 204 0.0 0.0 0.00 0.00 0.00 1005.7
20260505052019 0 204 0.0 0.9 0.00 0.00 0.00 1005.8
20260505051516 0 204 0.0 0.9 0.00 0.00 0.00 1005.6
20260505051014 0 204 1.7 1.7 0.00 0.00 0.00 1005.8
20260505050512 0 204 0.9 0.9 0.00 0.00 0.00 1005.8
20260505041439 0 200 0.9 1.7 0.00 0.00 0.00 1005.5
20260505040937 0 227 0.0 0.9 0.00 0.00 0.00 1005.5
20260505040434 0 208 0.9 0.9 0.00 0.00 0.00 1005.4
20260505035931 0 209 0.0 1.7 0.00 0.00 0.00 1005.6
20260505035426 0 200 0.0 0.9 0.00 0.00 0.00 1005.5
20260505034924 0 209 0.0 1.7 0.00 0.00 0.00 1005.4
20260505034420 0 215 0.0 0.0 0.00 0.00 0.00 1005.4
20260505033917 0 210 0.0 0.9 0.00 0.00 0.00 1005.6
20260505033414 0 178 1.7 2.6 0.00 0.00 0.00 1005.4
20260505032913 0 210 0.0 0.9 0.00 0.00 0.00 1005.5
20260505032409 0 210 0.0 0.9 0.00 0.00 0.00 1005.5
20260505031906 0 211 0.0 0.9 0.00 0.00 0.00 1005.3
20260505031403 0 213 0.0 1.7 0.00 0.00 0.00 1005.6
20260505030859 0 224 0.0 1.7 0.00 0.00 0.00 1005.6
20260505030350 0 215 1.7 1.7 0.00 0.00 0.00 1005.6
20260505025845 0 201 0.0 2.6 0.00 0.00 0.00 1005.7
20260505025343 0 213 0.9 1.7 0.00 0.00 0.00 1005.6
20260505024842 0 207 0.0 1.7 0.00 0.00 0.00 1005.7
20260505024339 0 207 0.0 1.7 0.00 0.00 0.00 1005.8
20260505023835 0 211 0.0 1.7 0.00 0.00 0.00 1005.7
20260505023332 0 214 0.0 0.0 0.00 0.00 0.00 1005.7
20260505022830 0 208 0.9 1.7 0.00 0.00 0.00 1006.0
20260505022327 0 208 0.9 0.9 0.00 0.00 0.00 1005.9
20260505021825 0 205 0.9 1.7 0.00 0.00 0.00 1005.9
20260505021321 0 215 0.9 2.6 0.00 0.00 0.00 1005.7
20260505020817 0 202 1.7 1.7 0.00 0.00 0.00 1005.8
20260505020312 0 200 1.7 1.7 0.00 0.00 0.00 1005.7
20260505015809 0 205 0.9 1.7 0.00 0.00 0.00 1005.8
20260505015306 0 215 2.6 5.2 0.00 0.00 0.00 1005.7
20260505014803 0 216 1.7 2.6 0.00 0.00 0.00 1005.9
20260505014301 0 211 0.0 1.7 0.00 0.00 0.00 1005.7
20260505013757 0 201 0.0 1.7 0.00 0.00 0.00 1005.6
20260505013255 0 207 0.0 2.6 0.00 0.00 0.00 1005.6
20260505012753 0 208 0.9 1.7 0.00 0.00 0.00 1005.8
20260505012250 0 208 0.9 1.7 0.00 0.00 0.00 1005.5
20260505011746 0 220 0.9 2.6 0.00 0.00 0.00 1005.7
20260505011243 0 211 0.9 1.7 0.00 0.00 0.00 1005.6
20260505010738 0 210 1.7 1.7 0.00 0.00 0.00 1005.6
20260505010234 0 199 1.7 5.2 0.00 0.00 0.00 1005.5
20260505005731 0 216 0.9 1.7 0.00 0.00 0.00 1005.5
20260505005228 0 212 0.9 1.7 0.00 0.00 0.00 1005.5
20260505004725 0 201 0.9 1.7 0.00 0.00 0.00 1005.5
20260505004222 0 211 0.9 1.7 0.00 0.00 0.00 1005.2
20260505003719 0 201 0.0 0.0 0.00 0.00 0.00 1005.3
20260505003217 0 210 0.0 1.7 0.00 0.00 0.00 1005.2
20260505002712 0 214 0.9 1.7 0.00 0.00 0.00 1005.0
20260505002210 0 209 0.9 3.5 0.00 0.00 0.00 1004.9
20260505001708 0 214 0.0 2.6 0.00 0.00 0.00 1004.8
20260505001205 0 221 0.9 2.6 0.00 0.00 0.00 1005.1
20260505000702 0 216 0.9 1.7 0.00 0.00 0.00 1004.8
20260505000200 0 224 1.7 2.6 0.00 0.00 0.00 1004.9
20260504235656 0 223 0.9 5.2 0.00 0.00 0.00 1004.8
20260504235152 0 210 1.7 6.1 0.00 0.00 0.00 1005.0
20260504234650 0 210 0.0 0.0 0.00 0.00 0.00 1004.7
20260504234147 0 209 0.0 1.7 0.00 0.00 0.00 1004.7
20260504233643 0 238 1.7 2.6 0.00 0.00 0.00 1004.7
20260504233139 0 220 3.5 5.2 0.00 0.00 0.00 1004.7
20260504232637 0 234 4.3 6.1 0.00 0.00 0.00 1004.6
20260504232134 0 216 2.6 5.2 0.00 0.00 0.00 1004.6
20260504231630 0 212 0.0 3.5 0.00 0.00 0.00 1004.6
20260504231127 0 228 0.9 2.6 0.00 0.00 0.00 1004.6
20260504230623 0 201 1.7 3.5 0.00 0.00 0.00 1004.5
20260504230122 0 243 1.7 2.6 0.00 0.00 0.00 1004.6
20260504225620 0 215 5.2 9.6 0.00 0.00 0.00 1004.5
20260504225115 0 144 3.5 8.7 0.00 0.00 0.00 1004.2
20260504224612 0 210 3.5 9.6 0.00 0.00 0.00 1004.3
20260504224109 0 237 3.5 8.7 0.00 0.00 0.00 1004.2
20260504223606 0 215 1.7 5.2 0.00 0.00 0.00 1004.1
20260504223101 0 175 1.7 6.1 0.00 0.00 0.00 1004.2
20260504222559 0 144 3.5 8.7 0.00 0.00 0.00 1004.1
20260504222056 0 240 0.9 1.7 0.00 0.00 0.00 1004.0
20260504221553 0 198 0.9 7.8 0.00 0.00 0.00 1004.0
20260504221050 0 226 2.6 7.8 0.00 0.00 0.00 1004.2
20260504220546 0 210 1.7 7.8 0.00 0.00 0.00 1004.1
20260504220043 0 221 0.9 7.8 0.00 0.00 0.00 1004.1
20260504215539 0 232 2.6 7.8 0.00 0.00 0.00 1004.3
20260504215037 0 207 1.7 7.0 0.00 0.00 0.00 1004.2
20260504214533 0 218 1.7 6.1 0.00 0.00 0.00 1004.1
20260504214030 0 210 1.7 7.0 0.00 0.00 0.00 1004.2
20260504213526 0 210 3.5 7.8 0.00 0.00 0.00 1004.2
20260504213024 0 229 4.3 7.8 0.00 0.00 0.00 1004.3
20260504212519 0 215 0.9 3.5 0.00 0.00 0.00 1004.3
20260504212017 0 210 1.7 7.8 0.00 0.00 0.00 1004.3
20260504211514 0 212 1.7 7.8 0.00 0.00 0.00 1004.3
20260504211011 0 241 4.3 6.1 0.00 0.00 0.00 1004.5
20260504210508 0 207 1.7 3.5 0.00 0.00 0.00 1004.6
20260504210004 0 216 3.5 9.6 0.00 0.00 0.00 1004.7
20260504205502 0 246 7.0 8.7 0.00 0.00 0.00 1004.6
20260504205000 0 258 7.8 12.2 0.00 0.00 0.00 1004.8
20260504204458 0 237 2.6 8.7 0.00 0.00 0.00 1004.6
20260504203957 0 230 6.1 7.8 0.00 0.00 0.00 1005.0
20260504203454 0 240 6.1 7.8 0.00 0.00 0.00 1004.9
20260504202950 0 227 3.5 11.3 0.00 0.00 0.00 1005.1
20260504202446 0 201 3.5 8.7 0.00 0.00 0.00 1005.0
20260504201943 0 219 3.5 7.8 0.00 0.00 0.00 1005.1
20260504201435 0 167 4.3 7.8 0.00 0.00 0.00 1005.4
20260504200932 0 267 5.2 12.2 0.00 0.00 0.00 1005.4
20260504200429 0 288 8.7 9.6 0.00 0.00 0.00 1005.1
20260504195926 0 274 7.8 12.2 0.00 0.00 0.00 1005.3
20260504195421 0 218 5.2 7.8 0.00 0.00 0.00 1005.3
20260504194918 0 234 3.5 9.6 0.00 0.00 0.00 1005.3
20260504194414 0 228 2.6 12.2 0.00 0.00 0.00 1005.3
20260504193910 0 256 7.0 13.0 0.00 0.00 0.00 1005.5
20260504193408 0 207 2.6 7.0 0.00 0.00 0.00 1005.6
20260504192907 0 283 7.8 11.3 0.00 0.00 0.00 1005.6
20260504192403 0 236 3.5 7.8 0.00 0.00 0.00 1005.5
20260504191902 0 213 3.5 12.2 0.00 0.00 0.00 1005.7
20260504191359 0 207 1.7 13.0 0.00 0.00 0.00 1005.7
20260504190854 0 210 2.6 9.6 0.00 0.00 0.00 1005.9
20260504190351 0 215 3.5 11.3 0.00 0.00 0.00 1005.9
20260504185847 0 272 7.0 12.2 0.00 0.00 0.00 1005.7
20260504185344 0 241 3.5 6.1 0.00 0.00 0.00 1005.7
20260504184840 0 264 7.0 11.3 0.00 0.00 0.00 1006.1
20260504184337 0 310 4.3 8.7 0.00 0.00 0.00 1005.8
20260504183832 0 212 2.6 13.0 0.00 0.00 0.00 1006.0
20260504183330 0 242 5.2 12.2 0.00 0.00 0.00 1005.9
20260504182828 0 215 4.3 8.7 0.00 0.00 0.00 1005.9
20260504182325 0 217 6.1 13.0 0.00 0.00 0.00 1006.1
20260504181822 0 249 9.6 13.0 0.00 0.00 0.00 1006.2
20260504181319 0 245 2.6 8.7 0.00 0.00 0.00 1006.2
20260504180818 0 180 7.8 13.9 0.00 0.00 0.00 1006.2
20260504180316 0 254 7.8 15.6 0.00 0.00 0.00 1006.2
20260504175814 0 212 5.2 13.0 0.00 0.00 0.00 1006.2
20260504175310 0 242 6.1 14.8 0.00 0.00 0.00 1006.3
20260504174809 0 277 12.2 13.9 0.00 0.00 0.00 1006.4
20260504174306 0 213 1.7 9.6 0.00 0.00 0.00 1006.3
20260504173803 0 239 7.8 8.7 0.00 0.00 0.00 1006.4
20260504173259 0 234 4.3 13.0 0.00 0.00 0.00 1006.3
20260504172756 0 215 4.3 8.7 0.00 0.00 0.00 1006.3
20260504172252 0 230 6.1 12.2 0.00 0.00 0.00 1006.4
20260504171748 0 225 7.0 13.0 0.00 0.00 0.00 1006.4
20260504171246 0 212 5.2 7.8 0.00 0.00 0.00 1006.5
20260504170743 0 267 7.8 12.2 0.00 0.00 0.00 1006.4
20260504170240 0 256 7.0 16.5 0.00 0.00 0.00 1006.7
20260504160158 0 212 1.7 8.7 0.00 0.00 0.00 1007.5
20260504151126 0 228 3.5 9.6 0.00 0.00 0.00 1008.1
20260504150624 0 234 2.6 6.1 0.00 0.00 0.00 1007.9
20260504150120 0 216 3.5 7.8 0.00 0.00 0.00 1007.9
20260504141049 0 222 3.5 12.2 0.00 0.00 0.00 1008.1
20260504140545 0 211 3.5 11.3 0.00 0.00 0.00 1008.1
20260504130510 0 208 0.9 3.5 0.00 0.00 0.00 1008.7